ROMMA est une association bénévole à but non lucratif. Votre soutien est indispensable : ADHERER à ROMMA ou FAIRE un DON

Grimentz - (CH, Suisse)

Alpes Valaisannes (1710 m)   Longitude: 07° 34' E   Latitude: 46° 11' N Station partenaire n°125
 

Détail journalier du     <<     >>

Température Precipitation Humidité Vent Dir Rafale Dir. rafale Ensol.
Heure (°C) (mm) (%) (km/h) (km/h) (min)
01:00 4.02.6952ENE19NE0
02:00 3.11.2942ENE16ENE0
03:00 2.00952NO5SSO0
04:00 2.30951NO5NO0
05:00 1.80.29506E0
06:00 1.20942NE5NNO0
07:00 0.90845O13O0
08:00 0.40893NNO13ONO0
09:00 3.10702O11SSO30
10:00 5.20682SSO11SSO60
11:00 4.60803E6E50
12:00 7.20633SE8SSO60
13:00 8.20713E10E60
14:00 8.60614E11ESE60
15:00 8.70614E13E60
16:00 8.80603E11E60
17:00 7.00681---6SSE10
18:00 5.407400---0
19:00 4.40722---6O0
20:00 4.10744NO6NO0
21:00 3.90702NO6NO0
22:00 3.70681---6ONO0
23:00 3.50691NO6ONO0
minuit 2.50743NO6ONO0

Graphique du 07-10-2019

 

Serveur OMMA